Nashua, NH

10:17 AM EDT on June 18, 2018 (GMT -0400)
Boire

Weather History for KASH - June, 2018

Change the Weather History Date:

Thursday, June 14, 2018

  Actual Average Record
Temperature  
Mean Temperature 70 °F -  
Max Temperature 77 °F 78 °F 95 °F (1956)
Min Temperature 64 °F 53 °F 39 °F (1970)
Cooling Degree Days 6    
Growing Degree Days 20 (Base 50)    
Moisture  
Dew Point 56 °F    
Average Humidity 64    
Maximum Humidity 93    
Minimum Humidity 42    
Precipitation  
Precipitation 0.04 in - - ()
Sea Level Pressure  
Sea Level Pressure 29.69 in    
Wind  
Wind Speed 6 mph (WNW)    
Max Wind Speed 17 mph    
Max Gust Speed 24 mph    
Visibility 10 miles    
Events Rain    
Averages and records for this station are not official NWS values.
T = Trace of Precipitation, MM = Missing Value Source: NWS Daily Summary

Daily Weather History Graph

Daily Weather History Graph

Search for Another Location

Airport or City:

Astronomy

Jun. 14, 2018 Rise Set
Actual Time 5:07 AM EDT 8:25 PM EDT
Civil Twilight 4:32 AM EDT 9:00 PM EDT
Nautical Twilight 3:46 AM EDT 9:46 PM EDT
Astronomical Twilight 2:50 AM EDT 10:42 PM EDT
Moon 6:02 AM EDT (6/14) 9:21 PM EDT (6/14)
Length of Visible Light 16h 28m
Length of Day
15h 18m
New Moon, 1% of the Moon is Illuminated
Jun 14
New Moon
Jun 20
First Quarter
Jun 28
Full
Jul 6
Last Quarter
Jul 12
New

Hourly Weather History & Observations

Time (EDT) Temp. Dew Point Humidity Pressure Visibility Wind Dir Wind Speed Gust Speed Precip Events Conditions
12:24 AM 69.8 °F 66.2 °F 88% 29.65 in 9.0 mi Calm Calm - 0.00 in Rain Light Rain
12:39 AM 69.8 °F 66.2 °F 88% 29.65 in 10.0 mi Calm Calm - 0.00 in Rain Light Rain
12:56 AM 69.1 °F 66.9 °F 93% 29.68 in 10.0 mi Calm Calm - 0.00 in   Overcast
1:56 AM 72.0 °F 66.0 °F 81% 29.66 in 10.0 mi Variable 5.8 mph - N/A   Overcast
2:56 AM 70.0 °F 64.9 °F 84% 29.64 in 10.0 mi Calm Calm - N/A   Clear
3:56 AM 69.1 °F 60.1 °F 73% 29.64 in 10.0 mi Variable 6.9 mph - N/A   Partly Cloudy
4:56 AM 66.9 °F 55.0 °F 66% 29.65 in 10.0 mi West 9.2 mph - N/A   Clear
5:56 AM 66.0 °F 54.0 °F 65% 29.65 in 10.0 mi West 6.9 mph - N/A   Partly Cloudy
6:56 AM 68.0 °F 54.0 °F 61% 29.66 in 10.0 mi WSW 8.1 mph - N/A   Scattered Clouds
7:56 AM 69.1 °F 54.0 °F 58% 29.66 in 10.0 mi WSW 5.8 mph 17.3 mph N/A   Scattered Clouds
8:56 AM 72.0 °F 54.0 °F 53% 29.65 in 10.0 mi WNW 8.1 mph 18.4 mph 0.04 in   Partly Cloudy
9:18 AM 71.6 °F 53.6 °F 53% 29.63 in 10.0 mi NW 9.2 mph - N/A   Scattered Clouds
9:56 AM 73.0 °F 52.0 °F 48% 29.66 in 10.0 mi WNW 9.2 mph 20.7 mph N/A   Mostly Cloudy
10:56 AM 75.0 °F 52.0 °F 44% 29.64 in 10.0 mi WNW 15.0 mph 24.2 mph N/A   Mostly Cloudy
11:56 AM 77.0 °F 52.0 °F 42% 29.65 in 10.0 mi West 15.0 mph 21.9 mph N/A   Scattered Clouds
12:56 PM 73.9 °F 52.0 °F 46% 29.66 in 10.0 mi NW 16.1 mph 20.7 mph N/A   Overcast
1:56 PM 73.0 °F 53.1 °F 49% 29.66 in 10.0 mi WNW 13.8 mph 20.7 mph N/A   Mostly Cloudy
2:56 PM 71.1 °F 53.1 °F 53% 29.67 in 10.0 mi West 12.7 mph 19.6 mph N/A   Overcast
4:56 PM 70.0 °F 54.0 °F 57% 29.71 in 10.0 mi WNW 17.3 mph - N/A   Overcast
5:56 PM 69.1 °F 54.0 °F 58% 29.73 in 10.0 mi WNW 9.2 mph 16.1 mph N/A   Overcast
6:56 PM 69.1 °F 55.0 °F 61% 29.75 in 10.0 mi WNW 10.4 mph - N/A   Overcast
7:56 PM 68.0 °F 55.0 °F 63% 29.77 in 10.0 mi WNW 8.1 mph - N/A   Overcast
8:56 PM 66.0 °F 55.0 °F 68% 29.77 in 10.0 mi WNW 5.8 mph - N/A   Mostly Cloudy
9:56 PM 66.0 °F 55.0 °F 68% 29.81 in 10.0 mi West 5.8 mph - N/A   Overcast
10:56 PM 64.9 °F 55.0 °F 70% 29.83 in 10.0 mi West 4.6 mph - N/A   Mostly Cloudy
11:56 PM 64.0 °F 55.9 °F 75% 29.85 in 10.0 mi Calm Calm - N/A   Overcast